Regional Weather Roundup
Issued by NWS Kansas City/Pleasant Hill, MO

Home | Current Version | Previous Version | Text Only | Print | Product List | Glossary On
Versions: 1 2 3 4 5 6 7 8 9 10 11 12 13 14 15 16 17 18 19 20 21 22 23 24 25 26 27 28 29 30 31 32 33 34 35 36 37 38 39 40 41 42 43 44 45 46 47 48 49 50
000
ASUS43 KEAX 221710
RWREAX

WEATHER ROUNDUP FOR EASTERN KANSAS AND NORTHWEST MISSOURI
NATIONAL WEATHER SERVICE KANSAS CITY/PLEASANT HILL MO
1100 AM CST THU FEB 22 2018

KSZ040-057-103>105-MOZ028-029-037-043-221800-
...KANSAS CITY METROPOLITAN AREA...

CITY           SKY/WX    TMP DP  RH WIND       PRES   REMARKS
K.C. INTL      FRZ DRZL  30  28  92 E8        30.37S VSB 1   WCI  22
K.C. DOWNTOWN  CLOUDY    31  28  89 E6        30.38F FOG     WCI  25
LEES SUMMIT    FOG       30  30 100 E8        30.37F VSB 1   WCI  22
OLATHE - IXD   CLOUDY    30  29  96 E7        30.34F FOG     WCI  23
OLATHE - OJC   CLOUDY    29  29 100 E8        30.35F FOG     WCI  21
LAWRENCE       CLOUDY    30  29  96 NE7       30.35F FOG     WCI  23

$$

MOZ001>008-011>017-020>025-030>033-038>040-044>046-053-054-221800-
...NORTHERN AND CENTRAL MISSOURI...

CITY           SKY/WX    TMP DP  RH WIND       PRES   REMARKS
ST. JOSEPH     CLOUDY    29  29 100 SE7       30.39F FOG     WCI  22
MOSBY          CLOUDY    32  30  93 E7        30.39F FOG     WCI  26
WARRENSBURG    CLOUDY    32  30  93 CALM      30.39F FOG
WHITEMAN AFB   CLOUDY    32  30  93 CALM      30.34S FOG
CLINTON        CLOUDY    32  32 100 MISG      30.39S
SEDALIA        CLOUDY    33  33 100 E6        30.38R FOG     WCI  28
WARSAW         NOT AVBL
CHILLICOTHE      N/A     31  29  92 E5        30.42R WCI  26
KIRKSVILLE     FOG       30  30 100 E13       30.40F VSB 1   WCI  20

$$

MOZ041-047>049-056>058-063>065-088>090-097-221800-
...EASTERN AND SOUTHERN MISSOURI...

CITY           SKY/WX    TMP DP  RH WIND       PRES   REMARKS
ST. LOUIS INTL LGT RAIN  38  38 100 NE3       30.41F VSB 3/4
SPIRIT OF STL  CLOUDY    38  37  97 NE5       30.40F FOG     WCI  34
COLUMBIA       CLOUDY    34  33  96 E12       30.35F WCI  25
JEFFERSON CITY CLOUDY    36  33  89 E9        30.37F WCI  29
ROLLA          CLOUDY    35  35 100 E10       30.36F FOG     WCI  27
OSAGE BEACH    CLOUDY    34  33  96 E8        30.35F WCI  27
SPRINGFIELD    CLOUDY    39  38  96 S8        30.32R WCI  33
BRANSON        FOG       36  36 100 E5        30.32F VSB 1/4 WCI  32
JOPLIN         CLOUDY    36  36 100 NE7       30.30F FOG     WCI  30
WEST PLAINS    FOG       37  36  96 NE8       30.32F VSB 1/4 WCI  31

$$

IAZ060-094-KSZ022-034>040-054-083-096-NEZ052-066-093-221800-
...KANSAS...SOUTHEAST NEBRASKA AND IOWA...

CITY           SKY/WX    TMP DP  RH WIND       PRES   REMARKS
TOPEKA         CLOUDY    30  29  96 E7        30.36F FOG     WCI  23
MANHATTAN      CLOUDY    30  27  88 E8        30.34F WCI  22
EMPORIA        CLOUDY    30  28  92 E8        30.31F FOG     WCI  22
CHANUTE        CLOUDY    32  32 100 NE6       30.32F FOG     WCI  26
WICHITA        FRZ RAIN  29  29 100 CALM      30.34R FOG
OMAHA          FLURRIES  27  22  81 SE9       30.41F WCI  18
LINCOLN        CLOUDY    25  22  88 SE6       30.38F FOG     WCI  18
FALLS CITY     CLOUDY    28  26  92 SE6       30.39R WCI  22
LAMONI         CLOUDY    29  26  89 E9        30.38S FOG     WCI  20
DES MOINES     CLOUDY    27  23  85 E10G22    30.41F WCI  17

$$




USA.gov is the U.S. government's official web portal to all federal, state and local government web resources and services.